Aeroporto :
LOGIN :

Iscrizione | Disclaimer

   EN    FR    IT 

 










Sommario :    VFR   VFR Marginale   IFR   IFR Intensivo   IFR Molto Intensivo
Visibilità : 
Base nubi : 
>= 8 km
>= 3000ft
5 / 8 km
1000 / 3000 ft
1500m / 5 km
500 / 1000 ft
800 / 1500m
200 / 500 ft
< 800m
< 200 ft
Simboli :   Temporali  Nebbia  Neve Forte  Precipitazioni Forti  Vento > 20 kt
SIGMETs :   Varie  Temporali  Ghiacco  Turbolenza  Onda orograficha  Ceneri Vulcaniche







- Altitudine del aeroporto : 306 ft
- Codice IATA : EMA
- Carte del aeroporto


EGNX - Nottingham East Midlands

ULTIMO METAR :
  • 191250Z 29007KT 260V330 9999 SCT028 SCT040 15/10 Q1010

METARs OBSOLETI :
  • 191220Z 31005KT 270V330 9999 SCT027 SCT036 15/10 Q1010
  • 191150Z 27005KT 220V340 9999 SCT025 17/10 Q1010
  • 191120Z VRB02KT 9999 SCT022 16/10 Q1010
  • 191050Z VRB03KT 9999 SCT021 15/10 Q1010

TAF TAF EGNX
Valido dal 19 a 12 ore il 20 a 12 ore UTC


191057Z 1912/2012 VRB04KT 9999 SCT035
PROB40
TEMPO 1912/1919 3000 +SHRA
PROB30
TEMPO 1919/1922 6000 SHRA
PROB30
TEMPO 1922/2007 8000
PROB30
TEMPO 2010/2012 5000 SHRA
ATIS : +44 1332 852 852 (ext 3201)
Nessun NOTAM noto per questo aeroporto.



MetMap, La meteo Aeronautica in un colpo d'occhio ! - Copyright ORBIFLY Dicembre 2007 - Disclaimer

ORBIFLY MET'MAP TEAM :

Programmazione e sviluppo : Alexandra Zaïnal
Concezione e sviluppo : Baudouin d'Aumeries
Co-Programmazione e sviluppo : Marc-Olivier Méhu
Supporto tecnico e logistico : Manuel Goepfert
Aiuto per la traduzione : Arnaldo La Scala

Contatto : metmap@orbifly.com




FONTI E CREDITI :

   NOAA